| time (UTC) | temp F | wind direction | speed MPH | gust MPH | rain 1hr in | rain 24hr in | rain mn in | humidity % | barometer mb |
| 20260507223054 | 73 | 326 | 11.0 | 21.0 | 0.00 | 0.00 | 0.00 | 24 | 1006.8 |
| 20260507221552 | 73 | 360 | 13.0 | 21.0 | 0.00 | 0.00 | 0.00 | 24 | 1006.7 |
| 20260507220050 | 72 | 311 | 7.0 | 21.0 | 0.00 | 0.00 | 0.00 | 26 | 1006.8 |
| 20260507214649 | 73 | 349 | 15.0 | 23.0 | 0.00 | 0.00 | 0.00 | 26 | 1006.9 |
| 20260507213108 | 72 | 350 | 19.0 | 27.0 | 0.00 | 0.00 | 0.00 | 27 | 1006.9 |
| 20260507211557 | 73 | 331 | 15.0 | 27.0 | 0.00 | 0.00 | 0.00 | 25 | 1007.0 |
| 20260507210056 | 73 | 340 | 15.0 | 25.0 | 0.00 | 0.00 | 0.00 | 26 | 1006.9 |
| 20260507204601 | 72 | 308 | 12.0 | 23.0 | 0.00 | 0.00 | 0.00 | 27 | 1007.2 |
| 20260507203051 | 70 | 334 | 15.0 | 27.0 | 0.00 | 0.00 | 0.00 | 28 | 1007.3 |
| 20260507201551 | 69 | 329 | 11.0 | 24.0 | 0.00 | 0.00 | 0.00 | 31 | 1007.3 |
| 20260507200050 | 70 | 329 | 16.0 | 24.0 | 0.00 | 0.00 | 0.00 | 30 | 1007.3 |
| 20260507194550 | 71 | 331 | 20.0 | 29.0 | 0.00 | 0.00 | 0.00 | 30 | 1007.3 |
| 20260507193048 | 70 | 328 | 15.0 | 25.0 | 0.00 | 0.00 | 0.00 | 33 | 1007.1 |
| 20260507191547 | 71 | 346 | 17.0 | 29.0 | 0.00 | 0.00 | 0.00 | 31 | 1007.1 |
| 20260507190045 | 71 | 339 | 15.0 | 22.0 | 0.00 | 0.00 | 0.00 | 34 | 1007.1 |
| 20260507184544 | 70 | 321 | 14.0 | 24.0 | 0.00 | 0.00 | 0.00 | 34 | 1007.2 |
| 20260507183042 | 70 | 319 | 17.0 | 23.0 | 0.00 | 0.00 | 0.00 | 34 | 1007.3 |
| 20260507181537 | 69 | 299 | 8.0 | 19.0 | 0.00 | 0.00 | 0.00 | 34 | 1007.4 |
| 20260507180037 | 69 | 317 | 8.0 | 18.0 | 0.00 | 0.00 | 0.00 | 35 | 1007.6 |
| 20260507174537 | 68 | 323 | 9.0 | 15.0 | 0.00 | 0.00 | 0.00 | 37 | 1007.7 |
| 20260507173034 | 66 | 300 | 5.0 | 13.0 | 0.00 | 0.00 | 0.00 | 42 | 1007.9 |
| 20260507171531 | 67 | 327 | 8.0 | 14.0 | 0.00 | 0.00 | 0.00 | 40 | 1008.2 |
| 20260507170025 | 67 | 325 | 6.0 | 11.0 | 0.00 | 0.00 | 0.00 | 40 | 1008.4 |
| 20260507164523 | 65 | 299 | 11.0 | 16.0 | 0.00 | 0.00 | 0.00 | 43 | 1008.6 |
| 20260507163021 | 64 | 298 | 8.0 | 14.0 | 0.00 | 0.00 | 0.00 | 41 | 1008.8 |
| 20260507161519 | 64 | 296 | 8.0 | 18.0 | 0.00 | 0.00 | 0.00 | 41 | 1008.9 |
| 20260507160019 | 63 | 300 | 9.0 | 16.0 | 0.00 | 0.00 | 0.00 | 43 | 1008.9 |
| 20260507154515 | 63 | 293 | 10.0 | 15.0 | 0.00 | 0.00 | 0.00 | 44 | 1008.9 |
| 20260507153012 | 60 | 290 | 7.0 | 14.0 | 0.00 | 0.00 | 0.00 | 48 | 1009.0 |
| 20260507151511 | 61 | 286 | 9.0 | 13.0 | 0.00 | 0.00 | 0.00 | 47 | 1008.9 |
| 20260507150011 | 58 | 244 | 8.0 | 13.0 | 0.00 | 0.00 | 0.00 | 50 | 1009.0 |
| 20260507144503 | 56 | 240 | 8.0 | 14.0 | 0.00 | 0.00 | 0.00 | 54 | 1009.0 |
| 20260507143103 | 55 | 225 | 8.0 | 12.0 | 0.00 | 0.00 | 0.00 | 57 | 1009.1 |
| 20260507141602 | 53 | 219 | 6.0 | 10.0 | 0.00 | 0.00 | 0.00 | 58 | 1009.2 |
| 20260507140113 | 52 | 213 | 7.0 | 10.0 | 0.00 | 0.00 | 0.00 | 58 | 1009.2 |
| 20260507134553 | 50 | 217 | 7.0 | 9.0 | 0.00 | 0.00 | 0.00 | 65 | 1009.1 |
| 20260507133049 | 47 | 221 | 4.0 | 6.0 | 0.00 | 0.00 | 0.00 | 70 | 1009.2 |
| 20260507131600 | 48 | 221 | 4.0 | 8.0 | 0.00 | 0.00 | 0.00 | 67 | 1009.1 |
| 20260507130053 | 47 | 211 | 6.0 | 10.0 | 0.00 | 0.00 | 0.00 | 68 | 1009.2 |
| 20260507124552 | 46 | 206 | 5.0 | 6.0 | 0.00 | 0.00 | 0.00 | 69 | 1009.1 |
| 20260507123052 | 46 | 206 | 4.0 | 6.0 | 0.00 | 0.00 | 0.00 | 69 | 1009.1 |
| 20260507121542 | 47 | 205 | 4.0 | 6.0 | 0.00 | 0.00 | 0.00 | 70 | 1009.2 |
| 20260507120040 | 47 | 205 | 4.0 | 7.0 | 0.00 | 0.00 | 0.00 | 70 | 1009.2 |
| 20260507114543 | 46 | 205 | 5.0 | 6.0 | 0.00 | 0.00 | 0.00 | 71 | 1009.1 |
| 20260507113039 | 46 | 203 | 4.0 | 7.0 | 0.00 | 0.00 | 0.00 | 72 | 1009.2 |
| 20260507111535 | 46 | 202 | 3.0 | 4.0 | 0.00 | 0.00 | 0.00 | 71 | 1008.9 |
| 20260507110034 | 46 | 202 | 3.0 | 9.0 | 0.00 | 0.00 | 0.00 | 70 | 1008.8 |
| 20260507104532 | 47 | 263 | 6.0 | 9.0 | 0.00 | 0.00 | 0.00 | 69 | 1008.7 |
| 20260507103030 | 47 | 331 | 5.0 | 8.0 | 0.00 | 0.00 | 0.00 | 65 | 1009.1 |
| 20260507101534 | 46 | 345 | 5.0 | 9.0 | 0.00 | 0.00 | 0.00 | 59 | 1009.1 |
| 20260507100032 | 47 | 360 | 1.0 | 3.0 | 0.00 | 0.00 | 0.00 | 56 | 1009.2 |
| 20260507094526 | 47 | 9 | 2.0 | 4.0 | 0.00 | 0.00 | 0.00 | 58 | 1009.0 |
| 20260507093035 | 47 | 5 | 0.0 | 4.0 | 0.00 | 0.00 | 0.00 | 55 | 1009.0 |
| 20260507091522 | 47 | 5 | 1.0 | 4.0 | 0.00 | 0.00 | 0.00 | 57 | 1008.7 |
| 20260507090029 | 47 | 5 | 0.0 | 5.0 | 0.00 | 0.00 | 0.00 | 57 | 1008.9 |
| 20260507084517 | 48 | 11 | 3.0 | 4.0 | 0.00 | 0.00 | 0.00 | 57 | 1008.6 |
| 20260507083031 | 48 | 24 | 1.0 | 2.0 | 0.00 | 0.00 | 0.00 | 57 | 1008.7 |
| 20260507081512 | 48 | 30 | 3.0 | 5.0 | 0.00 | 0.00 | 0.00 | 54 | 1008.3 |
| 20260507080009 | 48 | 25 | 0.0 | 8.0 | 0.00 | 0.00 | 0.00 | 53 | 1008.3 |
| 20260507074518 | 49 | 23 | 2.0 | 4.0 | 0.00 | 0.00 | 0.00 | 50 | 1008.2 |
| 20260507073003 | 49 | 25 | 3.0 | 9.0 | 0.00 | 0.00 | 0.00 | 44 | 1008.1 |
| 20260507071500 | 50 | 58 | 2.0 | 4.0 | 0.00 | 0.00 | 0.00 | 48 | 1007.9 |
| 20260507070058 | 50 | 71 | 0.0 | 1.0 | 0.00 | 0.00 | 0.00 | 45 | 1007.7 |
| 20260507064559 | 51 | 69 | 1.0 | 5.0 | 0.00 | 0.00 | 0.00 | 38 | 1007.4 |
| 20260507063058 | 51 | 69 | 5.0 | 9.0 | 0.00 | 0.00 | 0.00 | 36 | 1008.1 |
| 20260507061551 | 52 | 95 | 3.0 | 7.0 | 0.00 | 0.00 | 0.00 | 35 | 1007.8 |
| 20260507060048 | 52 | 94 | 8.0 | 12.0 | 0.00 | 0.00 | 0.00 | 33 | 1007.6 |
| 20260507054552 | 52 | 80 | 7.0 | 11.0 | 0.00 | 0.00 | 0.00 | 33 | 1007.7 |
| 20260507053048 | 51 | 63 | 7.0 | 12.0 | 0.00 | 0.00 | 0.00 | 36 | 1008.0 |
| 20260507051546 | 52 | 40 | 9.0 | 13.0 | 0.00 | 0.00 | 0.00 | 34 | 1008.4 |
| 20260507050045 | 53 | 51 | 7.0 | 10.0 | 0.00 | 0.00 | 0.00 | 34 | 1008.2 |
| 20260507044545 | 53 | 61 | 5.0 | 11.0 | 0.00 | 0.00 | 0.00 | 34 | 1008.3 |
| 20260507043044 | 53 | 53 | 6.0 | 9.0 | 0.00 | 0.00 | 0.00 | 34 | 1008.4 |
| 20260507041543 | 54 | 47 | 6.0 | 11.0 | 0.00 | 0.00 | 0.00 | 32 | 1008.5 |
| 20260507040056 | 54 | 76 | 7.0 | 10.0 | 0.00 | 0.00 | 0.00 | 32 | 1008.6 |
| 20260507034553 | 55 | 116 | 5.0 | 9.0 | 0.00 | 0.00 | 0.00 | 30 | 1008.4 |
| 20260507033043 | 55 | 118 | 5.0 | 15.0 | 0.00 | 0.00 | 0.00 | 29 | 1008.3 |
| 20260507031541 | 55 | 93 | 10.0 | 15.0 | 0.00 | 0.00 | 0.00 | 30 | 1007.2 |
| 20260507030041 | 56 | 64 | 11.0 | 18.0 | 0.00 | 0.00 | 0.00 | 28 | 1007.2 |
| 20260507024540 | 57 | 90 | 14.0 | 20.0 | 0.00 | 0.00 | 0.00 | 28 | 1006.6 |
| 20260507023038 | 58 | 75 | 8.0 | 17.0 | 0.00 | 0.00 | 0.00 | 26 | 1007.0 |
| 20260507021538 | 59 | 77 | 9.0 | 15.0 | 0.00 | 0.00 | 0.00 | 26 | 1007.2 |
| 20260507020037 | 60 | 71 | 8.0 | 15.0 | 0.00 | 0.00 | 0.00 | 25 | 1007.4 |
| 20260507014537 | 61 | 80 | 10.0 | 14.0 | 0.00 | 0.00 | 0.00 | 25 | 1007.0 |
| 20260507013038 | 62 | 74 | 9.0 | 16.0 | 0.00 | 0.00 | 0.00 | 25 | 1006.8 |
| 20260507011539 | 63 | 86 | 12.0 | 17.0 | 0.00 | 0.00 | 0.00 | 25 | 1006.8 |
| 20260507010034 | 65 | 67 | 10.0 | 17.0 | 0.00 | 0.00 | 0.00 | 24 | 1007.0 |
| 20260507004533 | 65 | 62 | 10.0 | 15.0 | 0.00 | 0.00 | 0.00 | 24 | 1007.1 |
| 20260507003031 | 65 | 63 | 10.0 | 15.0 | 0.00 | 0.00 | 0.00 | 24 | 1007.2 |
| 20260507001541 | 65 | 78 | 8.0 | 14.0 | 0.00 | 0.00 | 0.00 | 26 | 1007.2 |
| 20260507000031 | 66 | 44 | 8.0 | 13.0 | 0.00 | 0.00 | 0.00 | 24 | 1007.2 |
| 20260506234541 | 67 | 65 | 8.0 | 14.0 | 0.00 | 0.00 | 0.00 | 24 | 1007.3 |
| 20260506233029 | 67 | 55 | 5.0 | 13.0 | 0.00 | 0.00 | 0.00 | 23 | 1007.3 |
| 20260506231531 | 68 | 71 | 9.0 | 12.0 | 0.00 | 0.00 | 0.00 | 24 | 1007.6 |
| 20260506230025 | 69 | 40 | 5.0 | 10.0 | 0.00 | 0.00 | 0.00 | 23 | 1007.7 |
| 20260506224527 | 68 | 76 | 2.0 | 10.0 | 0.00 | 0.00 | 0.00 | 24 | 1008.0 |